Weather History for K2WX - April, 2013

Change the Weather History Date:

Monday, April 29, 2013

  Actual Average Record
Temperature  
Mean Temperature 54 °F 48 °F  
Max Temperature 71 °F 61 °F 78 °F (2008)
Min Temperature 37 °F 36 °F 19 °F (2005)
Degree Days  
Heating Degree Days 11 17  
Month to date heating degree days 800 634  
Since 1 July heating degree days 7196 7437  
Cooling Degree Days 0 0  
Month to date cooling degree days 0 0  
Year to date cooling degree days 0 0  
Growing Degree Days 4 (Base 50)    
Moisture  
Dew Point 39 °F    
Average Humidity 65    
Maximum Humidity 100    
Minimum Humidity 29    
Precipitation  
Precipitation 0.03 in 0.08 in 0.36 in (2003)
Month to date precipitation 1.16 1.46  
Year to date precipitation 1.64 2.80  
Sea Level Pressure  
Sea Level Pressure 29.54 in    
Wind  
Wind Speed 13 mph (WSW)    
Max Wind Speed 44 mph    
Max Gust Speed 52 mph    
T = Trace of Precipitation, MM = Missing Value Source: NWS Daily Summary

Daily Weather History Graph

Daily Weather History Graph

Search for Another Location

Airport or City:

Trip Planner

Search our weather history database for the weather conditions in past years. The results will help you decide how hot, cold, wet, or windy it might be!

Date:

Astronomy

Apr. 29, 2013 Rise Set
Actual Time 5:44 AM MDT 7:59 PM MDT
Civil Twilight 5:12 AM MDT 8:31 PM MDT
Nautical Twilight 4:31 AM MDT 9:12 PM MDT
Astronomical Twilight 3:46 AM MDT 9:57 PM MDT
Moon No Moon Rise 9:03 AM MDT
Length of Visible Light 15h 19m
Length of Day
14h 14m
Waning Gibbous, 79% of the Moon is Illuminated
Apr 29
Waning Gibbous
May 2
Last Quarter
May 9
New
May 17
First Quarter
May 24
Full

Hourly Weather History & Observations

Time (MDT) Temp. Windchill Dew Point Humidity Pressure Visibility Wind Dir Wind Speed Gust Speed Precip Events Conditions
12:56 AM 48.0 °F - 37.9 °F 68% 29.76 in - Calm Calm - N/A   Unknown
1:56 AM 42.1 °F 39.2 °F 37.0 °F 82% 29.75 in - SE 4.6 mph - N/A   Unknown
2:56 AM 39.0 °F 32.3 °F 37.0 °F 93% 29.72 in - SSE 10.4 mph - N/A   Unknown
3:56 AM 39.0 °F 32.3 °F 37.9 °F 96% 29.70 in - South 10.4 mph - N/A   Unknown
4:56 AM 37.9 °F 31.5 °F 36.0 °F 93% 29.68 in - South 9.2 mph - N/A   Unknown
5:56 AM 37.9 °F 31.5 °F 37.0 °F 97% 29.65 in - SSE 9.2 mph - N/A   Unknown
6:56 AM 41.0 °F 32.8 °F 39.0 °F 93% 29.62 in - South 16.1 mph - N/A   Unknown
7:56 AM 45.0 °F 39.7 °F 43.0 °F 93% 29.60 in - South 10.4 mph - N/A   Unknown
8:56 AM 50.0 °F - 44.1 °F 80% 29.59 in - South 8.1 mph - N/A   Unknown
9:56 AM 59.0 °F - 42.1 °F 53% 29.53 in - South 15.0 mph - N/A   Unknown
10:56 AM 61.0 °F - 41.0 °F 48% 29.52 in - SW 9.2 mph 20.7 mph N/A   Unknown
11:56 AM 64.0 °F - 39.9 °F 41% 29.49 in - SSW 15.0 mph 20.7 mph N/A   Unknown
12:56 PM 66.9 °F - 39.9 °F 37% 29.44 in - Variable 4.6 mph 19.6 mph N/A   Unknown
1:56 PM 69.1 °F - 37.9 °F 32% 29.41 in - West 13.8 mph 19.6 mph N/A   Unknown
2:56 PM 70.0 °F - 37.9 °F 31% 29.39 in - West 11.5 mph 20.7 mph N/A   Unknown
3:56 PM 68.0 °F - 36.0 °F 31% 29.37 in - NW 13.8 mph - N/A   Unknown
4:56 PM 66.9 °F - 34.0 °F 30% 29.35 in - North 8.1 mph - N/A   Unknown
5:56 PM 64.0 °F - 32.0 °F 30% 29.38 in - North 15.0 mph - N/A   Unknown
6:56 PM 50.0 °F - 42.1 °F 74% 29.44 in - NNW 23.0 mph 31.1 mph N/A   Unknown
7:56 PM 46.9 °F - 41.0 °F 80% 29.49 in - NW 28.8 mph 33.4 mph N/A   Unknown
8:56 PM 46.0 °F 37.0 °F 39.0 °F 76% 29.49 in - NNW 27.6 mph 36.8 mph N/A   Unknown
9:56 PM 44.1 °F 36.5 °F 41.0 °F 89% 29.50 in - NW 17.3 mph - 0.01 in   Unknown
10:56 PM 44.1 °F 38.6 °F 41.0 °F 89% 29.53 in - West 10.4 mph - 0.02 in   Unknown
11:56 PM 45.0 °F 37.9 °F 41.0 °F 86% 29.55 in - WNW 16.1 mph - N/A   Unknown